When you browse on this site, cookies collect data to enhance your experience and personalize the content and advertising you see.
Visit our Privacy Policy to learn more. By continuing to use the site, you agree to this use of cookies and data.
  • In Romania
  • List of Countries
  • For 7 days
  • Water Temperature
  • Weather Map
  • Weather Widgets
  • user-avatar
    Login

    Hourly Weather Goiania

    Today, 20 January, Monday

    Time Temperature Precipitation Wind Pressure Humidity
    00:00 +22°C° 0.5 mm 0 mps 698 mmHg 87%
    01:00 +21°C° 1.2 mm 0 mps 697 mmHg 88%
    02:00 +23°C° 1.2 mm 1 mps 697 mmHg 89%
    03:00 +23°C° 0 mm 1 mps 697 mmHg 89%
    04:00 +23°C° 0.4 mm 1 mps 697 mmHg 89%
    05:00 +23°C° 0.4 mm 1 mps 697 mmHg 90%
    06:00 +23°C° 0.4 mm 1 mps 697 mmHg 90%
    07:00 +24°C° 0.3 mm 1 mps 697 mmHg 87%
    08:00 +25°C° 0.3 mm 1 mps 698 mmHg 84%
    09:00 +27°C° 0 mm 1 mps 699 mmHg 79%
    10:00 +29°C° 0.2 mm 1 mps 698 mmHg 74%
    11:00 +30°C° 0.2 mm 1 mps 698 mmHg 68%
    12:00 +31°C° 0.2 mm 2 mps 698 mmHg 63%
    13:00 +31°C° 0.9 mm 2 mps 697 mmHg 65%
    14:00 +31°C° 0.9 mm 2 mps 696 mmHg 66%
    15:00 +31°C° 0.9 mm 2 mps 696 mmHg 68%
    16:00 +30°C° 1.3 mm 1 mps 695 mmHg 73%
    17:00 +29°C° 1.3 mm 1 mps 695 mmHg 78%
    18:00 +28°C° 1.3 mm 1 mps 695 mmHg 83%
    19:00 +27°C° 0.9 mm 1 mps 695 mmHg 85%
    20:00 +26°C° 0.9 mm 1 mps 695 mmHg 86%
    21:00 +25°C° 0.9 mm 1 mps 696 mmHg 88%
    22:00 +25°C° 0.4 mm 1 mps 696 mmHg 88%
    23:00 +24°C° 0.4 mm 1 mps 696 mmHg 88%

    Tomorrow, 21 January, Tuesday

    Time Temperature Precipitation Wind Pressure Humidity
    00:00 +24°C° 0.4 mm 1 mps 696 mmHg 89%
    01:00 +24°C° 0.1 mm 1 mps 696 mmHg 89%
    02:00 +24°C° 0.1 mm 1 mps 695 mmHg 90%
    03:00 +24°C° 0.1 mm 1 mps 695 mmHg 90%
    04:00 +23°C° 0 mm 1 mps 695 mmHg 91%
    05:00 +23°C° 0 mm 1 mps 695 mmHg 92%
    06:00 +23°C° 0 mm 1 mps 695 mmHg 93%
    07:00 +24°C° 0.2 mm 2 mps 695 mmHg 89%
    08:00 +26°C° 0.2 mm 3 mps 696 mmHg 85%
    09:00 +27°C° 0.2 mm 3 mps 696 mmHg 82%
    10:00 +28°C° 0.6 mm 4 mps 696 mmHg 80%
    11:00 +29°C° 0.6 mm 4 mps 696 mmHg 78%
    12:00 +30°C° 0.6 mm 4 mps 696 mmHg 75%
    13:00 +29°C° 1.8 mm 4 mps 695 mmHg 77%
    14:00 +29°C° 1.8 mm 4 mps 694 mmHg 79%
    15:00 +29°C° 1.8 mm 4 mps 694 mmHg 81%
    16:00 +28°C° 2 mm 3 mps 693 mmHg 84%
    17:00 +28°C° 2 mm 3 mps 693 mmHg 86%
    18:00 +27°C° 2 mm 3 mps 693 mmHg 89%
    19:00 +26°C° 1.5 mm 3 mps 693 mmHg 90%
    20:00 +25°C° 1.5 mm 2 mps 694 mmHg 91%
    21:00 +25°C° 1.5 mm 2 mps 694 mmHg 91%
    22:00 +24°C° 0.1 mm 2 mps 694 mmHg 92%
    23:00 +24°C° 0.1 mm 2 mps 695 mmHg 92%

    Day after tomorrow, 22 January, Wednesday

    Time Temperature Precipitation Wind Pressure Humidity
    00:00 +24°C° 0.1 mm 2 mps 695 mmHg 92%
    01:00 +24°C° 0.6 mm 2 mps 694 mmHg 93%
    02:00 +24°C° 0.6 mm 3 mps 694 mmHg 94%
    03:00 +22°C° 0.6 mm 3 mps 693 mmHg 95%
    04:00 +22°C° 0.8 mm 3 mps 693 mmHg 95%
    05:00 +22°C° 0.8 mm 3 mps 693 mmHg 95%
    06:00 +23°C° 0.8 mm 2 mps 694 mmHg 96%
    07:00 +24°C° 0.1 mm 3 mps 694 mmHg 95%
    08:00 +24°C° 0.1 mm 3 mps 695 mmHg 94%
    09:00 +25°C° 0.1 mm 3 mps 695 mmHg 93%
    10:00 +25°C° 0.9 mm 4 mps 695 mmHg 91%
    11:00 +26°C° 0.9 mm 4 mps 695 mmHg 90%
    12:00 +26°C° 0.9 mm 4 mps 695 mmHg 88%
    13:00 +27°C° 1.3 mm 4 mps 695 mmHg 87%
    14:00 +27°C° 1.3 mm 4 mps 694 mmHg 86%
    15:00 +27°C° 1.3 mm 4 mps 694 mmHg 85%
    16:00 +27°C° 0.8 mm 4 mps 693 mmHg 87%
    17:00 +26°C° 0.8 mm 4 mps 693 mmHg 89%
    18:00 +26°C° 0.8 mm 3 mps 693 mmHg 90%
    19:00 +25°C° 0.2 mm 3 mps 693 mmHg 91%
    20:00 +24°C° 0.2 mm 3 mps 694 mmHg 92%
    21:00 +22°C° 0.2 mm 3 mps 694 mmHg 94%
    22:00 +22°C° 0 mm 3 mps 694 mmHg 93%
    23:00 +22°C° 0 mm 3 mps 695 mmHg 93%

    23 January, Thursday

    Time Temperature Precipitation Wind Pressure Humidity
    00:00 +22°C° 0 mm 4 mps 695 mmHg 92%
    01:00 +22°C° 0 mm 4 mps 695 mmHg 92%
    02:00 +22°C° 0 mm 4 mps 694 mmHg 92%
    03:00 +22°C° 0 mm 4 mps 694 mmHg 92%
    04:00 +22°C° 0 mm 4 mps 694 mmHg 91%
    05:00 +22°C° 0 mm 3 mps 694 mmHg 91%
    06:00 +22°C° 0 mm 3 mps 695 mmHg 91%
    07:00 +22°C° 0 mm 3 mps 695 mmHg 90%
    08:00 +22°C° 0 mm 4 mps 695 mmHg 90%
    09:00 +23°C° 0 mm 4 mps 695 mmHg 89%
    10:00 +25°C° 0.1 mm 4 mps 695 mmHg 86%
    11:00 +26°C° 0.1 mm 5 mps 695 mmHg 84%
    12:00 +27°C° 0.1 mm 5 mps 695 mmHg 81%
    13:00 +27°C° 0.3 mm 5 mps 695 mmHg 81%
    14:00 +27°C° 0.3 mm 5 mps 694 mmHg 80%
    15:00 +27°C° 0.3 mm 5 mps 693 mmHg 80%
    16:00 +26°C° 0.9 mm 5 mps 693 mmHg 83%
    17:00 +26°C° 0.9 mm 4 mps 693 mmHg 87%
    18:00 +25°C° 0.9 mm 4 mps 693 mmHg 91%
    19:00 +23°C° 0.6 mm 4 mps 693 mmHg 92%
    20:00 +23°C° 0.6 mm 4 mps 693 mmHg 93%
    21:00 +22°C° 0.6 mm 4 mps 694 mmHg 94%
    22:00 +22°C° 0.4 mm 4 mps 694 mmHg 94%
    23:00 +22°C° 0.4 mm 4 mps 694 mmHg 95%

    24 January, Friday

    Time Temperature Precipitation Wind Pressure Humidity
    00:00 +22°C° 0.4 mm 4 mps 694 mmHg 95%
    01:00 +22°C° 1.9 mm 4 mps 693 mmHg 95%
    02:00 +22°C° 1.9 mm 4 mps 693 mmHg 96%
    03:00 +22°C° 1.9 mm 5 mps 692 mmHg 96%
    04:00 +22°C° 5.6 mm 5 mps 692 mmHg 96%
    05:00 +22°C° 5.6 mm 5 mps 693 mmHg 96%
    06:00 +22°C° 5.6 mm 5 mps 693 mmHg 96%
    07:00 +22°C° 8.5 mm 5 mps 693 mmHg 96%
    08:00 +22°C° 8.5 mm 5 mps 694 mmHg 97%
    09:00 +22°C° 8.5 mm 6 mps 694 mmHg 97%
    10:00 +22°C° 3.3 mm 6 mps 695 mmHg 96%
    11:00 +22°C° 3.3 mm 5 mps 695 mmHg 96%
    12:00 +22°C° 3.3 mm 5 mps 695 mmHg 96%
    13:00 +22°C° 0.7 mm 5 mps 695 mmHg 96%
    14:00 +22°C° 0.7 mm 5 mps 694 mmHg 95%
    15:00 +22°C° 0.7 mm 4 mps 694 mmHg 95%
    16:00 +22°C° 0.2 mm 4 mps 694 mmHg 95%
    17:00 +22°C° 0.2 mm 4 mps 694 mmHg 94%
    18:00 +22°C° 0.2 mm 4 mps 694 mmHg 94%
    19:00 +22°C° 0.1 mm 5 mps 695 mmHg 94%
    20:00 +22°C° 0.1 mm 5 mps 695 mmHg 94%
    21:00 +22°C° 0.1 mm 5 mps 695 mmHg 94%
    22:00 +22°C° 0.5 mm 5 mps 696 mmHg 94%
    23:00 +22°C° 0.5 mm 5 mps 696 mmHg 94%

    25 January, Saturday

    Time Temperature Precipitation Wind Pressure Humidity
    00:00 +22°C° 0.5 mm 5 mps 696 mmHg 94%
    01:00 +21°C° 0.3 mm 5 mps 696 mmHg 94%
    02:00 +21°C° 0.3 mm 5 mps 695 mmHg 95%
    03:00 +21°C° 0.3 mm 5 mps 695 mmHg 95%
    04:00 +21°C° 0.7 mm 5 mps 695 mmHg 95%
    05:00 +21°C° 0.7 mm 4 mps 695 mmHg 95%
    06:00 +21°C° 0.7 mm 4 mps 696 mmHg 95%
    07:00 +21°C° 0.6 mm 4 mps 696 mmHg 95%
    08:00 +22°C° 0.6 mm 4 mps 697 mmHg 95%
    09:00 +22°C° 0.6 mm 4 mps 698 mmHg 95%
    10:00 +22°C° 0.8 mm 4 mps 698 mmHg 95%
    11:00 +22°C° 0.8 mm 4 mps 698 mmHg 95%
    12:00 +22°C° 0.8 mm 4 mps 698 mmHg 95%
    13:00 +22°C° 0.6 mm 4 mps 698 mmHg 95%
    14:00 +22°C° 0.6 mm 4 mps 697 mmHg 95%
    15:00 +22°C° 0.6 mm 4 mps 697 mmHg 95%
    16:00 +22°C° 0.3 mm 4 mps 697 mmHg 95%
    17:00 +22°C° 0.3 mm 3 mps 697 mmHg 95%
    18:00 +22°C° 0.3 mm 3 mps 697 mmHg 95%
    19:00 +22°C° 0.3 mm 3 mps 697 mmHg 95%
    20:00 +22°C° 0.3 mm 3 mps 697 mmHg 95%
    21:00 +22°C° 0.3 mm 3 mps 698 mmHg 95%
    22:00 +21°C° 0.1 mm 3 mps 698 mmHg 96%
    23:00 +21°C° 0.1 mm 2 mps 698 mmHg 96%
    Show more